Location: Fort Worth, Tx
(32.7431°N, 97.3695°W)
Time: 00:34:54
(UTC-04:00)

A-11 Canister half - Pass Details

Date: 24 February 2024
Orbit: 1525 x 1683 km, 47.3° (Epoch: 24 April)

Event Time Altitude Azimuth Distance (km) Brightness Sun altitude
Rises 23:56:33 0° 267° (W) 4,748 11.9 -56.3°
Reaches altitude 10° 23:59:57 10° 275° (W) 3,745 11.3 -56.9°
Enters shadow 00:02:01 17° 282° (WNW) 3,181 10.9 -57.2°
